Time,TemperatureF,DewpointF,PressureIn,WindDirection,WindDirectionDegrees,WindSpeedMPH,WindSpeedGustMPH,Humidity,HourlyPrecipIn,Conditions,Clouds,dailyrainin,SoftwareType,DateUTC
2013-08-31 00:03:00,90.9,81.5,29.62,ESE,113,0.0,2.7,74,0.00,,,0.00,WUHU216HW,2013-08-30 21:03:00,
2013-08-31 00:08:00,90.7,81.3,29.62,ESE,113,0.0,2.2,74,0.00,,,0.00,WUHU216HW,2013-08-30 21:08:00,
2013-08-31 00:13:00,90.7,81.3,29.62,SE,135,1.3,1.8,74,0.00,,,0.00,WUHU216HW,2013-08-30 21:13:00,
2013-08-31 00:18:00,90.5,81.1,29.62,SSE,158,1.6,2.2,74,0.00,,,0.00,WUHU216HW,2013-08-30 21:18:00,
2013-08-31 00:23:00,90.5,81.1,29.62,SSE,158,0.7,2.2,74,0.00,,,0.00,WUHU216HW,2013-08-30 21:23:00,
2013-08-31 00:28:00,90.5,81.6,29.62,South,180,1.3,2.7,75,0.00,,,0.00,WUHU216HW,2013-08-30 21:28:00,
2013-08-31 00:33:00,90.4,81.4,29.62,SSE,158,0.2,2.7,75,0.00,,,0.00,WUHU216HW,2013-08-30 21:33:00,
2013-08-31 00:38:00,90.4,81.4,29.62,South,180,1.1,2.0,75,0.00,,,0.00,WUHU216HW,2013-08-30 21:38:00,
2013-08-31 00:43:00,90.4,81.4,29.61,SSE,158,0.9,2.5,75,0.00,,,0.00,WUHU216HW,2013-08-30 21:43:00,
2013-08-31 00:48:00,90.4,81.4,29.61,SSE,158,0.0,2.5,75,0.00,,,0.00,WUHU216HW,2013-08-30 21:48:00,
2013-08-31 00:53:00,90.2,81.2,29.61,SSE,158,0.4,1.6,75,0.00,,,0.00,WUHU216HW,2013-08-30 21:53:00,
2013-08-31 00:58:00,90.2,81.2,29.61,West,270,2.5,2.9,75,0.00,,,0.00,WUHU216HW,2013-08-30 21:58:00,
2013-08-31 01:03:00,90.2,81.2,29.60,WSW,248,2.7,4.3,75,0.00,,,0.00,WUHU216HW,2013-08-30 22:03:00,
2013-08-31 01:08:00,90.0,81.4,29.60,WNW,293,3.1,4.3,76,0.00,,,0.00,WUHU216HW,2013-08-30 22:08:00,
2013-08-31 01:13:00,90.0,81.4,29.60,WNW,293,3.8,4.0,76,0.00,,,0.00,WUHU216HW,2013-08-30 22:13:00,
2013-08-31 01:18:00,89.6,81.0,29.60,WNW,293,3.6,4.0,76,0.00,,,0.00,WUHU216HW,2013-08-30 22:18:00,
2013-08-31 01:23:00,89.5,80.9,29.60,NW,315,4.5,4.7,76,0.00,,,0.00,WUHU216HW,2013-08-30 22:23:00,
2013-08-31 01:28:00,89.3,80.7,29.60,West,270,4.7,6.3,76,0.00,,,0.00,WUHU216HW,2013-08-30 22:28:00,
2013-08-31 01:33:00,89.3,80.7,29.60,NW,315,2.0,6.3,76,0.00,,,0.00,WUHU216HW,2013-08-30 22:33:00,
2013-08-31 01:38:00,89.3,81.1,29.60,WNW,293,4.5,4.7,77,0.00,,,0.00,WUHU216HW,2013-08-30 22:38:00,
2013-08-31 01:43:00,89.1,80.9,29.60,West,270,6.3,6.3,77,0.00,,,0.00,WUHU216HW,2013-08-30 22:43:00,
2013-08-31 01:48:00,88.9,80.7,29.60,WNW,293,4.7,6.9,77,0.00,,,0.00,WUHU216HW,2013-08-30 22:48:00,
2013-08-31 01:53:00,88.7,81.0,29.60,WNW,293,6.9,6.9,78,0.00,,,0.00,WUHU216HW,2013-08-30 22:53:00,
2013-08-31 01:58:00,88.7,81.0,29.60,WNW,293,6.0,7.6,78,0.00,,,0.00,WUHU216HW,2013-08-30 22:58:00,
2013-08-31 02:03:00,88.9,80.7,29.60,WSW,248,3.4,7.6,77,0.00,,,0.00,WUHU216HW,2013-08-30 23:03:00,
2013-08-31 02:08:00,88.9,80.7,29.59,NW,315,6.9,7.2,77,0.00,,,0.00,WUHU216HW,2013-08-30 23:08:00,
2013-08-31 02:13:00,88.9,80.7,29.60,WNW,293,5.6,8.1,77,0.00,,,0.00,WUHU216HW,2013-08-30 23:13:00,
2013-08-31 02:18:00,88.7,80.7,29.60,WNW,293,4.7,8.1,77,0.00,,,0.00,WUHU216HW,2013-08-30 23:18:00,
2013-08-31 02:23:00,88.7,80.7,29.59,WNW,293,5.4,6.3,77,0.00,,,0.00,WUHU216HW,2013-08-30 23:23:00,
2013-08-31 02:28:00,88.7,80.7,29.59,West,270,4.7,6.3,77,0.00,,,0.00,WUHU216HW,2013-08-30 23:28:00,
2013-08-31 02:33:00,88.6,80.0,29.60,West,270,5.8,6.3,76,0.00,,,0.00,WUHU216HW,2013-08-30 23:33:00,
2013-08-31 02:38:00,88.6,80.0,29.60,West,270,5.4,6.9,76,0.00,,,0.00,WUHU216HW,2013-08-30 23:38:00,
2013-08-31 02:43:00,88.6,80.0,29.60,West,270,4.7,6.9,76,0.00,,,0.00,WUHU216HW,2013-08-30 23:43:00,
2013-08-31 02:48:00,88.6,80.0,29.60,West,270,5.6,6.7,76,0.00,,,0.00,WUHU216HW,2013-08-30 23:48:00,
2013-08-31 02:53:00,88.6,80.0,29.59,WNW,293,4.0,6.7,76,0.00,,,0.00,WUHU216HW,2013-08-30 23:53:00,
2013-08-31 02:58:00,88.4,79.8,29.60,WNW,293,4.0,6.5,76,0.00,,,0.00,WUHU216HW,2013-08-30 23:58:00,
2013-08-31 03:03:00,88.4,79.8,29.60,WNW,293,4.0,5.8,76,0.00,,,0.00,WUHU216HW,2013-08-31 00:03:00,
2013-08-31 03:08:00,88.4,79.8,29.60,WNW,293,3.6,5.8,76,0.00,,,0.00,WUHU216HW,2013-08-31 00:08:00,
2013-08-31 03:13:00,88.4,79.8,29.60,NW,315,2.0,5.8,76,0.00,,,0.00,WUHU216HW,2013-08-31 00:13:00,
2013-08-31 03:18:00,88.2,80.1,29.60,WNW,293,2.5,4.7,77,0.00,,,0.00,WUHU216HW,2013-08-31 00:18:00,
2013-08-31 03:23:00,88.2,80.1,29.60,WNW,293,4.0,4.3,77,0.00,,,0.00,WUHU216HW,2013-08-31 00:23:00,
2013-08-31 03:28:00,88.2,80.1,29.60,NW,315,1.6,4.3,77,0.00,,,0.00,WUHU216HW,2013-08-31 00:28:00,
2013-08-31 03:33:00,88.2,80.1,29.60,NNW,338,2.5,4.0,77,0.00,,,0.00,WUHU216HW,2013-08-31 00:33:00,
2013-08-31 03:38:00,88.0,79.9,29.60,NW,315,1.1,2.7,77,0.00,,,0.00,WUHU216HW,2013-08-31 00:38:00,
2013-08-31 03:43:00,88.0,79.9,29.60,WNW,293,0.7,2.7,77,0.00,,,0.00,WUHU216HW,2013-08-31 00:43:00,
2013-08-31 03:48:00,88.0,79.9,29.60,NW,315,1.3,2.2,77,0.00,,,0.00,WUHU216HW,2013-08-31 00:48:00,
2013-08-31 03:53:00,88.0,80.4,29.60,NNW,338,1.8,2.2,78,0.00,,,0.00,WUHU216HW,2013-08-31 00:53:00,
2013-08-31 03:58:00,88.0,80.4,29.60,NW,315,1.8,3.1,78,0.00,,,0.00,WUHU216HW,2013-08-31 00:58:00,
2013-08-31 04:03:00,88.2,80.5,29.60,NNW,338,1.1,3.1,78,0.00,,,0.00,WUHU216HW,2013-08-31 01:03:00,
2013-08-31 04:08:00,88.2,80.5,29.61,NNW,338,1.8,2.9,78,0.00,,,0.00,WUHU216HW,2013-08-31 01:08:00,
2013-08-31 04:13:00,88.2,80.1,29.61,North,0,2.5,5.1,77,0.00,,,0.00,WUHU216HW,2013-08-31 01:13:00,
2013-08-31 04:18:00,88.4,80.6,29.61,North,0,2.9,5.4,78,0.00,,,0.00,WUHU216HW,2013-08-31 01:18:00,
2013-08-31 04:23:00,88.4,80.6,29.61,North,0,2.2,5.4,78,0.00,,,0.00,WUHU216HW,2013-08-31 01:23:00,
2013-08-31 04:28:00,88.4,80.6,29.62,NNE,23,5.4,6.7,78,0.00,,,0.00,WUHU216HW,2013-08-31 01:28:00,
2013-08-31 04:33:00,88.6,81.3,29.62,NNE,23,4.7,8.1,79,0.00,,,0.00,WUHU216HW,2013-08-31 01:33:00,
2013-08-31 04:38:00,88.6,81.6,29.62,North,0,2.7,8.1,80,0.00,,,0.00,WUHU216HW,2013-08-31 01:38:00,
2013-08-31 04:43:00,88.4,81.5,29.62,NNE,23,2.2,5.8,80,0.00,,,0.00,WUHU216HW,2013-08-31 01:43:00,
2013-08-31 04:48:00,88.4,81.5,29.63,NNE,23,4.7,4.7,80,0.00,,,0.00,WUHU216HW,2013-08-31 01:48:00,
2013-08-31 04:53:00,88.4,81.5,29.63,North,0,4.9,6.0,80,0.00,,,0.00,WUHU216HW,2013-08-31 01:53:00,
2013-08-31 04:58:00,88.6,81.6,29.63,North,0,5.8,6.9,80,0.00,,,0.00,WUHU216HW,2013-08-31 01:58:00,
2013-08-31 05:03:00,88.6,82.0,29.63,North,0,2.5,6.9,81,0.00,,,0.00,WUHU216HW,2013-08-31 02:03:00,
2013-08-31 05:08:00,88.6,82.0,29.63,NE,45,2.2,6.9,81,0.00,,,0.00,WUHU216HW,2013-08-31 02:08:00,
2013-08-31 05:13:00,88.7,82.2,29.63,NNE,23,2.5,6.3,81,0.00,,,0.00,WUHU216HW,2013-08-31 02:13:00,
2013-08-31 05:18:00,88.7,82.2,29.64,NNE,23,2.2,6.3,81,0.00,,,0.00,WUHU216HW,2013-08-31 02:18:00,
2013-08-31 05:23:00,88.9,82.4,29.64,NNE,23,4.5,6.3,81,0.00,,,0.00,WUHU216HW,2013-08-31 02:23:00,
2013-08-31 05:28:00,88.9,82.4,29.64,NE,45,1.8,5.4,81,0.00,,,0.00,WUHU216HW,2013-08-31 02:28:00,
2013-08-31 05:33:00,89.1,82.2,29.64,NNE,23,2.2,5.4,80,0.00,,,0.00,WUHU216HW,2013-08-31 02:33:00,
2013-08-31 05:38:00,89.3,82.3,29.64,NE,45,6.3,6.9,80,0.00,,,0.00,WUHU216HW,2013-08-31 02:38:00,
2013-08-31 05:43:00,89.5,82.4,29.64,ENE,68,3.8,6.9,80,0.00,,,0.00,WUHU216HW,2013-08-31 02:43:00,
2013-08-31 05:48:00,89.6,82.6,29.64,ENE,68,3.1,6.9,80,0.00,,,0.00,WUHU216HW,2013-08-31 02:48:00,
2013-08-31 05:53:00,89.6,82.6,29.65,East,90,4.0,7.2,80,0.00,,,0.00,WUHU216HW,2013-08-31 02:53:00,
2013-08-31 05:58:00,89.8,82.8,29.65,NE,45,5.1,7.2,80,0.00,,,0.00,WUHU216HW,2013-08-31 02:58:00,
2013-08-31 06:03:00,90.2,82.8,29.65,East,90,6.7,6.7,79,0.00,,,0.00,WUHU216HW,2013-08-31 03:03:00,
2013-08-31 06:08:00,90.4,83.0,29.65,East,90,6.5,6.9,79,0.00,,,0.00,WUHU216HW,2013-08-31 03:08:00,
2013-08-31 06:13:00,90.7,83.7,29.65,East,90,3.4,6.9,80,0.00,,,0.00,WUHU216HW,2013-08-31 03:13:00,
2013-08-31 06:18:00,91.1,83.3,29.66,ENE,68,4.7,7.8,78,0.00,,,0.00,WUHU216HW,2013-08-31 03:18:00,
2013-08-31 06:23:00,91.3,83.4,29.66,ENE,68,4.7,7.8,78,0.00,,,0.00,WUHU216HW,2013-08-31 03:23:00,
2013-08-31 06:28:00,91.6,83.3,29.66,East,90,6.3,9.2,77,0.00,,,0.00,WUHU216HW,2013-08-31 03:28:00,
2013-08-31 06:33:00,92.0,83.4,29.66,ENE,68,4.7,9.2,76,0.00,,,0.00,WUHU216HW,2013-08-31 03:33:00,
2013-08-31 06:38:00,92.2,83.1,29.66,East,90,5.4,7.8,75,0.00,,,0.00,WUHU216HW,2013-08-31 03:38:00,
2013-08-31 06:43:00,92.5,82.6,29.66,ENE,68,8.5,9.2,73,0.00,,,0.00,WUHU216HW,2013-08-31 03:43:00,
2013-08-31 06:48:00,92.9,83.0,29.66,ENE,68,6.9,9.8,73,0.00,,,0.00,WUHU216HW,2013-08-31 03:48:00,
2013-08-31 06:53:00,93.1,82.7,29.66,ENE,68,6.9,9.8,72,0.00,,,0.00,WUHU216HW,2013-08-31 03:53:00,
2013-08-31 06:58:00,93.6,83.3,29.67,East,90,3.8,7.8,72,0.00,,,0.00,WUHU216HW,2013-08-31 03:58:00,
2013-08-31 07:01:00,93.8,83.0,29.67,ESE,113,6.3,7.6,71,0.00,,,0.00,WUHU216HW,2013-08-31 04:01:00,
2013-08-31 07:03:00,94.0,82.7,29.67,East,90,8.5,8.5,70,0.00,,,0.00,WUHU216HW,2013-08-31 04:03:00,
2013-08-31 07:08:00,94.1,82.9,29.67,ESE,113,4.7,9.8,70,0.00,,,0.00,WUHU216HW,2013-08-31 04:08:00,
2013-08-31 07:13:00,94.5,83.3,29.67,ESE,113,6.3,9.8,70,0.00,,,0.00,WUHU216HW,2013-08-31 04:13:00,
2013-08-31 07:18:00,94.3,83.1,29.67,NE,45,9.4,10.5,70,0.00,,,0.00,WUHU216HW,2013-08-31 04:18:00,
2013-08-31 07:23:00,94.0,83.6,29.67,East,90,9.4,10.5,72,0.00,,,0.00,WUHU216HW,2013-08-31 04:23:00,
2013-08-31 07:28:00,93.8,83.4,29.67,ESE,113,9.2,9.8,72,0.00,,,0.00,WUHU216HW,2013-08-31 04:28:00,
2013-08-31 07:33:00,94.0,83.6,29.67,ENE,68,6.9,9.8,72,0.00,,,0.00,WUHU216HW,2013-08-31 04:33:00,
2013-08-31 07:38:00,94.0,83.2,29.67,ENE,68,6.5,10.5,71,0.00,,,0.00,WUHU216HW,2013-08-31 04:38:00,
2013-08-31 07:43:00,94.1,83.4,29.67,ENE,68,8.7,11.4,71,0.00,,,0.00,WUHU216HW,2013-08-31 04:43:00,
2013-08-31 07:48:00,94.3,83.1,29.68,East,90,9.6,11.4,70,0.00,,,0.00,WUHU216HW,2013-08-31 04:48:00,
2013-08-31 07:53:00,94.5,82.7,29.68,East,90,8.5,11.2,69,0.00,,,0.00,WUHU216HW,2013-08-31 04:53:00,
2013-08-31 07:58:00,94.7,83.3,29.68,ENE,68,9.8,11.2,70,0.00,,,0.00,WUHU216HW,2013-08-31 04:58:00,
2013-08-31 08:03:00,94.5,83.3,29.68,East,90,5.6,11.6,70,0.00,,,0.00,WUHU216HW,2013-08-31 05:03:00,
2013-08-31 08:08:00,94.9,83.5,29.68,NE,45,6.9,11.6,70,0.00,,,0.00,WUHU216HW,2013-08-31 05:08:00,
2013-08-31 08:13:00,95.2,83.4,29.68,ENE,68,8.5,9.4,69,0.00,,,0.00,WUHU216HW,2013-08-31 05:13:00,
2013-08-31 08:18:00,95.4,83.2,29.68,ESE,113,6.5,10.3,68,0.00,,,0.00,WUHU216HW,2013-08-31 05:18:00,
2013-08-31 08:23:00,95.4,83.2,29.68,ENE,68,6.3,12.1,68,0.00,,,0.00,WUHU216HW,2013-08-31 05:23:00,
2013-08-31 08:28:00,95.6,83.3,29.68,ENE,68,7.6,12.1,68,0.00,,,0.00,WUHU216HW,2013-08-31 05:28:00,
2013-08-31 08:33:00,95.9,83.6,29.68,ESE,113,7.6,11.9,68,0.00,,,0.00,WUHU216HW,2013-08-31 05:33:00,
2013-08-31 08:38:00,96.1,83.8,29.68,East,90,11.4,11.4,68,0.00,,,0.00,WUHU216HW,2013-08-31 05:38:00,
2013-08-31 08:43:00,96.1,83.3,29.68,East,90,8.1,11.4,67,0.00,,,0.00,WUHU216HW,2013-08-31 05:43:00,
2013-08-31 08:48:00,96.3,83.5,29.68,ENE,68,10.1,11.9,67,0.00,,,0.00,WUHU216HW,2013-08-31 05:48:00,
2013-08-31 08:53:00,96.1,83.3,29.68,ENE,68,4.7,11.9,67,0.00,,,0.00,WUHU216HW,2013-08-31 05:53:00,
2013-08-31 08:58:00,96.3,83.5,29.68,East,90,9.4,13.4,67,0.00,,,0.00,WUHU216HW,2013-08-31 05:58:00,
2013-08-31 09:03:00,96.3,83.5,29.68,ENE,68,7.6,13.4,67,0.00,,,0.00,WUHU216HW,2013-08-31 06:03:00,
2013-08-31 09:08:00,96.3,83.5,29.68,East,90,6.7,12.1,67,0.00,,,0.00,WUHU216HW,2013-08-31 06:08:00,
2013-08-31 09:13:00,96.5,82.7,29.68,East,90,12.1,12.1,65,0.00,,,0.00,WUHU216HW,2013-08-31 06:13:00,
2013-08-31 09:18:00,96.5,83.3,29.68,ESE,113,9.2,12.3,66,0.00,,,0.00,WUHU216HW,2013-08-31 06:18:00,
2013-08-31 09:23:00,96.5,83.3,29.68,ENE,68,8.3,12.3,66,0.00,,,0.00,WUHU216HW,2013-08-31 06:23:00,
2013-08-31 09:28:00,96.8,83.1,29.68,East,90,9.2,11.6,65,0.00,,,0.00,WUHU216HW,2013-08-31 06:28:00,
2013-08-31 09:33:00,96.8,83.1,29.67,ENE,68,11.4,11.9,65,0.00,,,0.00,WUHU216HW,2013-08-31 06:33:00,
2013-08-31 09:38:00,96.8,83.5,29.67,ESE,113,6.0,11.9,66,0.00,,,0.00,WUHU216HW,2013-08-31 06:38:00,
2013-08-31 09:43:00,96.8,83.5,29.67,ENE,68,11.2,12.1,66,0.00,,,0.00,WUHU216HW,2013-08-31 06:43:00,
2013-08-31 09:48:00,96.8,83.5,29.67,ESE,113,12.1,12.1,66,0.00,,,0.00,WUHU216HW,2013-08-31 06:48:00,
2013-08-31 09:53:00,97.0,83.7,29.67,East,90,11.2,12.3,66,0.00,,,0.00,WUHU216HW,2013-08-31 06:53:00,
2013-08-31 09:58:00,97.0,83.7,29.67,ESE,113,9.2,12.3,66,0.00,,,0.00,WUHU216HW,2013-08-31 06:58:00,
2013-08-31 10:03:00,97.2,84.4,29.67,ESE,113,11.0,11.2,67,0.00,,,0.00,WUHU216HW,2013-08-31 07:03:00,
2013-08-31 10:08:00,97.2,83.9,29.67,ESE,113,8.3,11.0,66,0.00,,,0.00,WUHU216HW,2013-08-31 07:08:00,
2013-08-31 10:13:00,97.2,84.4,29.67,ENE,68,7.2,12.3,67,0.00,,,0.00,WUHU216HW,2013-08-31 07:13:00,
2013-08-31 10:18:00,97.2,84.4,29.67,ESE,113,9.2,12.3,67,0.00,,,0.00,WUHU216HW,2013-08-31 07:18:00,
2013-08-31 10:23:00,97.2,84.4,29.67,ENE,68,8.3,11.2,67,0.00,,,0.00,WUHU216HW,2013-08-31 07:23:00,
2013-08-31 10:28:00,97.2,84.4,29.67,East,90,6.5,11.6,67,0.00,,,0.00,WUHU216HW,2013-08-31 07:28:00,
2013-08-31 10:33:00,97.4,84.6,29.67,ESE,113,7.6,11.6,67,0.00,,,0.00,WUHU216HW,2013-08-31 07:33:00,
2013-08-31 10:38:00,97.6,84.8,29.67,ENE,68,5.1,12.1,67,0.00,,,0.00,WUHU216HW,2013-08-31 07:38:00,
2013-08-31 10:43:00,97.7,84.4,29.66,ENE,68,6.9,12.1,66,0.00,,,0.00,WUHU216HW,2013-08-31 07:43:00,
2013-08-31 10:48:00,97.9,84.6,29.67,ESE,113,6.7,9.6,66,0.00,,,0.00,WUHU216HW,2013-08-31 07:48:00,
2013-08-31 10:53:00,98.1,84.8,29.66,ESE,113,7.2,9.2,66,0.00,,,0.00,WUHU216HW,2013-08-31 07:53:00,
2013-08-31 10:58:00,98.3,84.5,29.66,ESE,113,11.0,11.0,65,0.00,,,0.00,WUHU216HW,2013-08-31 07:58:00,
2013-08-31 11:03:00,98.1,84.8,29.66,ENE,68,8.9,11.2,66,0.00,,,0.00,WUHU216HW,2013-08-31 08:03:00,
2013-08-31 11:08:00,97.9,84.2,29.66,East,90,8.1,12.8,65,0.00,,,0.00,WUHU216HW,2013-08-31 08:08:00,
2013-08-31 11:13:00,98.1,84.8,29.65,ENE,68,6.0,12.8,66,0.00,,,0.00,WUHU216HW,2013-08-31 08:13:00,
2013-08-31 11:18:00,98.3,84.5,29.65,ENE,68,5.4,9.8,65,0.00,,,0.00,WUHU216HW,2013-08-31 08:18:00,
2013-08-31 11:23:00,98.3,84.5,29.65,ESE,113,6.9,10.5,65,0.00,,,0.00,WUHU216HW,2013-08-31 08:23:00,
2013-08-31 11:28:00,98.3,85.0,29.65,East,90,7.6,10.5,66,0.00,,,0.00,WUHU216HW,2013-08-31 08:28:00,
2013-08-31 11:33:00,98.3,84.5,29.65,ENE,68,7.4,9.4,65,0.00,,,0.00,WUHU216HW,2013-08-31 08:33:00,
2013-08-31 11:38:00,98.3,84.1,29.65,ENE,68,6.5,10.5,64,0.00,,,0.00,WUHU216HW,2013-08-31 08:38:00,
2013-08-31 11:43:00,98.1,84.3,29.65,East,90,7.6,10.7,65,0.00,,,0.00,WUHU216HW,2013-08-31 08:43:00,
2013-08-31 11:48:00,98.5,84.3,29.65,ENE,68,6.9,10.7,64,0.00,,,0.00,WUHU216HW,2013-08-31 08:48:00,
2013-08-31 11:53:00,98.6,84.9,29.65,ENE,68,9.4,10.1,65,0.00,,,0.00,WUHU216HW,2013-08-31 08:53:00,
2013-08-31 11:58:00,98.5,84.7,29.65,East,90,8.5,10.1,65,0.00,,,0.00,WUHU216HW,2013-08-31 08:58:00,
2013-08-31 12:03:00,98.3,84.5,29.64,ENE,68,9.6,10.3,65,0.00,,,0.00,WUHU216HW,2013-08-31 09:03:00,
2013-08-31 12:08:00,98.3,84.5,29.64,ENE,68,9.8,10.3,65,0.00,,,0.00,WUHU216HW,2013-08-31 09:08:00,
2013-08-31 12:13:00,98.3,84.5,29.64,East,90,6.9,9.8,65,0.00,,,0.00,WUHU216HW,2013-08-31 09:13:00,
2013-08-31 12:18:00,98.5,84.7,29.64,East,90,7.8,9.8,65,0.00,,,0.00,WUHU216HW,2013-08-31 09:18:00,
2013-08-31 12:23:00,98.6,84.4,29.64,ESE,113,9.2,10.5,64,0.00,,,0.00,WUHU216HW,2013-08-31 09:23:00,
2013-08-31 12:28:00,98.3,84.1,29.63,ESE,113,5.4,10.5,64,0.00,,,0.00,WUHU216HW,2013-08-31 09:28:00,
2013-08-31 12:33:00,98.3,84.5,29.63,East,90,6.7,9.8,65,0.00,,,0.00,WUHU216HW,2013-08-31 09:33:00,
2013-08-31 12:38:00,98.3,85.0,29.63,ESE,113,6.9,9.8,66,0.00,,,0.00,WUHU216HW,2013-08-31 09:38:00,
2013-08-31 12:43:00,98.6,84.9,29.63,ENE,68,6.0,9.8,65,0.00,,,0.00,WUHU216HW,2013-08-31 09:43:00,
2013-08-31 12:48:00,98.8,85.1,29.63,East,90,8.5,9.6,65,0.00,,,0.00,WUHU216HW,2013-08-31 09:48:00,
2013-08-31 12:53:00,99.0,85.2,29.63,East,90,7.8,9.6,65,0.00,,,0.00,WUHU216HW,2013-08-31 09:53:00,
2013-08-31 12:58:00,98.6,84.9,29.63,East,90,6.3,9.8,65,0.00,,,0.00,WUHU216HW,2013-08-31 09:58:00,
2013-08-31 13:03:00,99.0,84.3,29.63,East,90,8.7,10.3,63,0.00,,,0.00,WUHU216HW,2013-08-31 10:03:00,
2013-08-31 13:08:00,99.0,84.7,29.62,SE,135,2.5,10.3,64,0.00,,,0.00,WUHU216HW,2013-08-31 10:08:00,
2013-08-31 13:13:00,99.4,84.5,29.62,ESE,113,7.6,9.8,63,0.00,,,0.00,WUHU216HW,2013-08-31 10:13:00,
2013-08-31 13:18:00,99.4,84.5,29.62,East,90,6.7,9.8,63,0.00,,,0.00,WUHU216HW,2013-08-31 10:18:00,
2013-08-31 13:23:00,99.4,84.5,29.62,East,90,4.9,9.6,63,0.00,,,0.00,WUHU216HW,2013-08-31 10:23:00,
2013-08-31 13:28:00,99.4,84.5,29.62,ESE,113,4.9,8.7,63,0.00,,,0.00,WUHU216HW,2013-08-31 10:28:00,
2013-08-31 13:33:00,99.0,84.3,29.62,ENE,68,5.6,8.5,63,0.00,,,0.00,WUHU216HW,2013-08-31 10:33:00,
2013-08-31 13:38:00,99.4,84.5,29.61,ESE,113,7.2,8.5,63,0.00,,,0.00,WUHU216HW,2013-08-31 10:38:00,
2013-08-31 13:43:00,99.4,84.1,29.61,ESE,113,4.7,9.4,62,0.00,,,0.00,WUHU216HW,2013-08-31 10:43:00,
2013-08-31 13:48:00,99.2,84.4,29.61,East,90,4.7,9.4,63,0.00,,,0.00,WUHU216HW,2013-08-31 10:48:00,
2013-08-31 13:53:00,99.0,83.7,29.61,SE,135,5.8,9.2,62,0.00,,,0.00,WUHU216HW,2013-08-31 10:53:00,
2013-08-31 13:58:00,99.0,84.3,29.61,ENE,68,7.4,9.2,63,0.00,,,0.00,WUHU216HW,2013-08-31 10:58:00,
2013-08-31 14:03:00,98.8,84.1,29.60,ESE,113,6.3,9.2,63,0.00,,,0.00,WUHU216HW,2013-08-31 11:03:00,
2013-08-31 14:08:00,98.8,84.1,29.60,East,90,4.3,9.2,63,0.00,,,0.00,WUHU216HW,2013-08-31 11:08:00,
2013-08-31 14:13:00,99.4,84.5,29.60,East,90,6.0,8.7,63,0.00,,,0.00,WUHU216HW,2013-08-31 11:13:00,
2013-08-31 14:18:00,99.2,84.4,29.60,East,90,8.5,9.2,63,0.00,,,0.00,WUHU216HW,2013-08-31 11:18:00,
2013-08-31 14:23:00,99.2,84.4,29.60,ESE,113,3.6,9.6,63,0.00,,,0.00,WUHU216HW,2013-08-31 11:23:00,
2013-08-31 14:28:00,99.0,84.3,29.60,East,90,7.6,9.6,63,0.00,,,0.00,WUHU216HW,2013-08-31 11:28:00,
2013-08-31 14:33:00,98.8,84.1,29.60,ESE,113,6.3,8.7,63,0.00,,,0.00,WUHU216HW,2013-08-31 11:33:00,
2013-08-31 14:38:00,98.6,84.4,29.60,East,90,6.9,8.7,64,0.00,,,0.00,WUHU216HW,2013-08-31 11:38:00,
2013-08-31 14:43:00,98.6,84.4,29.60,ENE,68,9.8,9.8,64,0.00,,,0.00,WUHU216HW,2013-08-31 11:43:00,
2013-08-31 14:48:00,98.6,84.4,29.60,East,90,5.4,9.8,64,0.00,,,0.00,WUHU216HW,2013-08-31 11:48:00,
2013-08-31 14:53:00,98.5,84.7,29.60,East,90,5.8,9.8,65,0.00,,,0.00,WUHU216HW,2013-08-31 11:53:00,
2013-08-31 14:58:00,98.8,85.1,29.60,ENE,68,6.7,8.5,65,0.00,,,0.00,WUHU216HW,2013-08-31 11:58:00,
2013-08-31 15:03:00,98.6,84.9,29.59,ESE,113,4.9,8.5,65,0.00,,,0.00,WUHU216HW,2013-08-31 12:03:00,
2013-08-31 15:08:00,99.0,84.3,29.59,ESE,113,4.3,9.6,63,0.00,,,0.00,WUHU216HW,2013-08-31 12:08:00,
2013-08-31 15:13:00,99.0,84.7,29.59,ENE,68,5.4,9.6,64,0.00,,,0.00,WUHU216HW,2013-08-31 12:13:00,
2013-08-31 15:18:00,99.0,84.7,29.59,ESE,113,5.1,7.8,64,0.00,,,0.00,WUHU216HW,2013-08-31 12:18:00,
2013-08-31 15:23:00,99.0,84.7,29.59,ESE,113,4.7,7.8,64,0.00,,,0.00,WUHU216HW,2013-08-31 12:23:00,
2013-08-31 15:28:00,99.0,84.7,29.59,ENE,68,7.6,8.7,64,0.00,,,0.00,WUHU216HW,2013-08-31 12:28:00,
2013-08-31 15:33:00,98.6,84.4,29.59,SE,135,5.1,9.8,64,0.00,,,0.00,WUHU216HW,2013-08-31 12:33:00,
2013-08-31 15:38:00,98.8,84.5,29.59,East,90,8.3,9.8,64,0.00,,,0.00,WUHU216HW,2013-08-31 12:38:00,
2013-08-31 15:43:00,98.6,84.4,29.59,East,90,7.4,8.5,64,0.00,,,0.00,WUHU216HW,2013-08-31 12:43:00,
2013-08-31 15:48:00,98.6,84.4,29.59,ESE,113,6.9,8.3,64,0.00,,,0.00,WUHU216HW,2013-08-31 12:48:00,
2013-08-31 15:53:00,98.6,84.9,29.59,NE,45,7.2,8.3,65,0.00,,,0.00,WUHU216HW,2013-08-31 12:53:00,
2013-08-31 15:58:00,98.6,84.4,29.59,ENE,68,7.4,8.5,64,0.00,,,0.00,WUHU216HW,2013-08-31 12:58:00,
2013-08-31 16:03:00,98.5,84.7,29.59,East,90,8.9,8.9,65,0.00,,,0.00,WUHU216HW,2013-08-31 13:03:00,
2013-08-31 16:08:00,98.3,84.5,29.59,East,90,8.1,9.2,65,0.00,,,0.00,WUHU216HW,2013-08-31 13:08:00,
2013-08-31 16:13:00,98.5,84.7,29.59,ESE,113,5.8,9.2,65,0.00,,,0.00,WUHU216HW,2013-08-31 13:13:00,
2013-08-31 16:18:00,98.3,84.5,29.59,East,90,4.7,9.8,65,0.00,,,0.00,WUHU216HW,2013-08-31 13:18:00,
2013-08-31 16:23:00,98.3,84.5,29.59,NE,45,8.5,9.8,65,0.00,,,0.00,WUHU216HW,2013-08-31 13:23:00,
2013-08-31 16:28:00,98.3,85.0,29.59,East,90,4.0,8.9,66,0.00,,,0.00,WUHU216HW,2013-08-31 13:28:00,
2013-08-31 16:33:00,98.5,84.7,29.59,East,90,8.3,8.9,65,0.00,,,0.00,WUHU216HW,2013-08-31 13:33:00,
2013-08-31 16:38:00,98.8,84.5,29.59,East,90,6.3,9.2,64,0.00,,,0.00,WUHU216HW,2013-08-31 13:38:00,
2013-08-31 16:43:00,99.0,84.7,29.59,East,90,5.4,9.2,64,0.00,,,0.00,WUHU216HW,2013-08-31 13:43:00,
2013-08-31 16:48:00,98.8,84.5,29.59,ENE,68,6.3,8.3,64,0.00,,,0.00,WUHU216HW,2013-08-31 13:48:00,
2013-08-31 16:53:00,98.6,84.9,29.59,East,90,5.6,8.3,65,0.00,,,0.00,WUHU216HW,2013-08-31 13:53:00,
2013-08-31 16:58:00,98.3,84.5,29.59,East,90,8.3,8.5,65,0.00,,,0.00,WUHU216HW,2013-08-31 13:58:00,
2013-08-31 17:03:00,98.1,84.8,29.59,East,90,4.0,8.5,66,0.00,,,0.00,WUHU216HW,2013-08-31 14:03:00,
2013-08-31 17:08:00,97.7,84.4,29.59,NNE,23,5.1,10.5,66,0.00,,,0.00,WUHU216HW,2013-08-31 14:08:00,
2013-08-31 17:13:00,97.4,84.1,29.59,East,90,5.4,10.5,66,0.00,,,0.00,WUHU216HW,2013-08-31 14:13:00,
2013-08-31 17:18:00,96.8,84.5,29.59,ENE,68,5.4,8.5,68,0.00,,,0.00,WUHU216HW,2013-08-31 14:18:00,
2013-08-31 17:23:00,96.7,84.3,29.59,East,90,5.6,8.5,68,0.00,,,0.00,WUHU216HW,2013-08-31 14:23:00,
2013-08-31 17:28:00,96.5,84.7,29.59,ENE,68,7.4,9.4,69,0.00,,,0.00,WUHU216HW,2013-08-31 14:28:00,
2013-08-31 17:33:00,96.3,85.0,29.59,ESE,113,6.0,9.4,70,0.00,,,0.00,WUHU216HW,2013-08-31 14:33:00,
2013-08-31 17:38:00,95.9,84.6,29.59,ENE,68,5.1,8.3,70,0.00,,,0.00,WUHU216HW,2013-08-31 14:38:00,
2013-08-31 17:43:00,95.8,84.9,29.59,NE,45,5.1,8.3,71,0.00,,,0.00,WUHU216HW,2013-08-31 14:43:00,
2013-08-31 17:48:00,95.6,85.1,29.59,ENE,68,6.0,7.6,72,0.00,,,0.00,WUHU216HW,2013-08-31 14:48:00,
2013-08-31 17:53:00,95.4,85.0,29.59,SSE,158,3.6,7.6,72,0.00,,,0.00,WUHU216HW,2013-08-31 14:53:00,
2013-08-31 17:58:00,95.4,85.0,29.59,ENE,68,5.8,6.9,72,0.00,,,0.00,WUHU216HW,2013-08-31 14:58:00,
2013-08-31 18:03:00,95.2,84.8,29.60,ENE,68,3.6,9.8,72,0.00,,,0.00,WUHU216HW,2013-08-31 15:03:00,
2013-08-31 18:08:00,95.0,84.6,29.60,North,0,7.6,9.8,72,0.00,,,0.00,WUHU216HW,2013-08-31 15:08:00,
2013-08-31 18:13:00,95.0,85.0,29.60,East,90,3.4,7.8,73,0.00,,,0.00,WUHU216HW,2013-08-31 15:13:00,
2013-08-31 18:18:00,94.9,84.9,29.60,ENE,68,9.8,9.8,73,0.00,,,0.00,WUHU216HW,2013-08-31 15:18:00,
2013-08-31 18:23:00,94.7,85.1,29.60,West,270,4.3,9.8,74,0.00,,,0.00,WUHU216HW,2013-08-31 15:23:00,
2013-08-31 18:28:00,94.5,85.0,29.60,ESE,113,4.7,10.3,74,0.00,,,0.00,WUHU216HW,2013-08-31 15:28:00,
2013-08-31 18:33:00,94.3,85.1,29.60,ESE,113,6.3,10.3,75,0.00,,,0.00,WUHU216HW,2013-08-31 15:33:00,
2013-08-31 18:38:00,94.3,85.1,29.60,NNE,23,4.0,9.6,75,0.00,,,0.00,WUHU216HW,2013-08-31 15:38:00,
2013-08-31 18:43:00,94.3,85.1,29.60,NNE,23,11.0,13.2,75,0.00,,,0.00,WUHU216HW,2013-08-31 15:43:00,
2013-08-31 18:48:00,94.1,85.1,29.60,ENE,68,5.4,13.2,75,0.00,,,0.00,WUHU216HW,2013-08-31 15:48:00,
2013-08-31 18:53:00,94.1,85.1,29.60,East,90,3.8,7.6,75,0.00,,,0.00,WUHU216HW,2013-08-31 15:53:00,
2013-08-31 18:58:00,94.1,85.1,29.61,NNE,23,5.6,7.6,75,0.00,,,0.00,WUHU216HW,2013-08-31 15:58:00,
2013-08-31 19:03:00,94.0,84.9,29.61,East,90,4.0,7.6,75,0.00,,,0.00,WUHU216HW,2013-08-31 16:03:00,
2013-08-31 19:08:00,94.0,84.9,29.61,ENE,68,4.9,8.5,75,0.00,,,0.00,WUHU216HW,2013-08-31 16:08:00,
2013-08-31 19:13:00,93.8,85.1,29.61,East,90,6.3,8.5,76,0.00,,,0.00,WUHU216HW,2013-08-31 16:13:00,
2013-08-31 19:18:00,93.8,85.1,29.62,ENE,68,4.5,11.0,76,0.00,,,0.00,WUHU216HW,2013-08-31 16:18:00,
2013-08-31 19:23:00,93.6,84.9,29.62,ENE,68,6.9,11.0,76,0.00,,,0.00,WUHU216HW,2013-08-31 16:23:00,
2013-08-31 19:28:00,93.6,84.9,29.62,NE,45,6.9,9.2,76,0.00,,,0.00,WUHU216HW,2013-08-31 16:28:00,
2013-08-31 19:33:00,93.4,84.3,29.62,East,90,5.1,8.9,75,0.00,,,0.00,WUHU216HW,2013-08-31 16:33:00,
2013-08-31 19:38:00,93.4,84.3,29.62,ESE,113,4.0,8.9,75,0.00,,,0.00,WUHU216HW,2013-08-31 16:38:00,
2013-08-31 19:43:00,93.4,83.9,29.63,East,90,6.3,7.8,74,0.00,,,0.00,WUHU216HW,2013-08-31 16:43:00,
2013-08-31 19:48:00,93.2,83.4,29.63,ESE,113,4.0,10.1,73,0.00,,,0.00,WUHU216HW,2013-08-31 16:48:00,
2013-08-31 19:53:00,93.2,83.4,29.63,NE,45,6.0,10.1,73,0.00,,,0.00,WUHU216HW,2013-08-31 16:53:00,
2013-08-31 19:58:00,93.2,83.4,29.63,ENE,68,6.7,9.2,73,0.00,,,0.00,WUHU216HW,2013-08-31 16:58:00,
2013-08-31 20:03:00,93.2,82.1,29.63,East,90,2.9,9.2,70,0.00,,,0.00,WUHU216HW,2013-08-31 17:03:00,
2013-08-31 20:08:00,93.4,82.6,29.63,ENE,68,3.4,8.5,71,0.00,,,0.00,WUHU216HW,2013-08-31 17:08:00,
2013-08-31 20:13:00,93.4,82.3,29.63,East,90,3.6,7.6,70,0.00,,,0.00,WUHU216HW,2013-08-31 17:13:00,
2013-08-31 20:18:00,93.4,80.8,29.63,NNE,23,4.7,8.7,67,0.00,,,0.00,WUHU216HW,2013-08-31 17:18:00,
2013-08-31 20:23:00,93.6,81.0,29.64,North,0,3.1,8.7,67,0.00,,,0.00,WUHU216HW,2013-08-31 17:23:00,
2013-08-31 20:28:00,93.6,81.9,29.64,NE,45,5.1,9.8,69,0.00,,,0.00,WUHU216HW,2013-08-31 17:28:00,
2013-08-31 20:33:00,93.6,82.5,29.64,NE,45,4.9,9.8,70,0.00,,,0.00,WUHU216HW,2013-08-31 17:33:00,
2013-08-31 20:38:00,93.8,82.1,29.64,NNE,23,6.9,11.4,69,0.00,,,0.00,WUHU216HW,2013-08-31 17:38:00,
2013-08-31 20:43:00,93.6,82.5,29.64,NE,45,2.5,11.4,70,0.00,,,0.00,WUHU216HW,2013-08-31 17:43:00,
2013-08-31 20:48:00,93.8,83.0,29.64,NNE,23,5.8,9.8,71,0.00,,,0.00,WUHU216HW,2013-08-31 17:48:00,
2013-08-31 20:53:00,93.8,83.0,29.65,NNE,23,4.0,9.4,71,0.00,,,0.00,WUHU216HW,2013-08-31 17:53:00,
2013-08-31 20:58:00,93.6,83.3,29.65,NNE,23,4.5,7.2,72,0.00,,,0.00,WUHU216HW,2013-08-31 17:58:00,
2013-08-31 21:03:00,93.6,83.7,29.65,NNE,23,4.0,8.1,73,0.00,,,0.00,WUHU216HW,2013-08-31 18:03:00,
2013-08-31 21:08:00,93.4,83.5,29.65,North,0,1.8,8.7,73,0.00,,,0.00,WUHU216HW,2013-08-31 18:08:00,
2013-08-31 21:13:00,93.2,83.7,29.65,NNE,23,4.0,8.7,74,0.00,,,0.00,WUHU216HW,2013-08-31 18:13:00,
2013-08-31 21:18:00,93.2,83.7,29.65,ESE,113,2.2,7.6,74,0.00,,,0.00,WUHU216HW,2013-08-31 18:18:00,
2013-08-31 21:23:00,93.2,83.7,29.65,North,0,3.8,7.6,74,0.00,,,0.00,WUHU216HW,2013-08-31 18:23:00,
2013-08-31 21:28:00,93.1,84.0,29.65,North,0,5.8,7.6,75,0.00,,,0.00,WUHU216HW,2013-08-31 18:28:00,
2013-08-31 21:33:00,93.1,84.0,29.65,North,0,1.8,7.4,75,0.00,,,0.00,WUHU216HW,2013-08-31 18:33:00,
2013-08-31 21:38:00,92.9,83.8,29.65,NNE,23,4.0,5.4,75,0.00,,,0.00,WUHU216HW,2013-08-31 18:38:00,
2013-08-31 21:43:00,92.9,83.8,29.65,North,0,10.3,10.3,75,0.00,,,0.00,WUHU216HW,2013-08-31 18:43:00,
2013-08-31 21:48:00,92.9,83.8,29.65,NNE,23,7.8,11.9,75,0.00,,,0.00,WUHU216HW,2013-08-31 18:48:00,
2013-08-31 21:53:00,92.7,83.6,29.65,ENE,68,4.0,11.9,75,0.00,,,0.00,WUHU216HW,2013-08-31 18:53:00,
2013-08-31 21:58:00,92.5,83.9,29.65,North,0,3.4,9.2,76,0.00,,,0.00,WUHU216HW,2013-08-31 18:58:00,
2013-08-31 22:03:00,92.5,83.9,29.65,North,0,5.4,9.2,76,0.00,,,0.00,WUHU216HW,2013-08-31 19:03:00,
2013-08-31 22:08:00,92.5,83.9,29.65,NNE,23,8.5,9.2,76,0.00,,,0.00,WUHU216HW,2013-08-31 19:08:00,
2013-08-31 22:13:00,92.5,83.9,29.65,NNE,23,7.4,10.5,76,0.00,,,0.00,WUHU216HW,2013-08-31 19:13:00,
2013-08-31 22:18:00,92.5,83.9,29.65,North,0,5.4,10.5,76,0.00,,,0.00,WUHU216HW,2013-08-31 19:18:00,
2013-08-31 22:23:00,92.5,83.9,29.65,NE,45,1.3,6.5,76,0.00,,,0.00,WUHU216HW,2013-08-31 19:23:00,
2013-08-31 22:28:00,92.3,83.7,29.65,NNE,23,3.4,6.5,76,0.00,,,0.00,WUHU216HW,2013-08-31 19:28:00,
2013-08-31 22:33:00,92.3,83.3,29.65,NNE,23,6.0,7.4,75,0.00,,,0.00,WUHU216HW,2013-08-31 19:33:00,
2013-08-31 22:38:00,92.3,83.3,29.65,North,0,3.4,7.4,75,0.00,,,0.00,WUHU216HW,2013-08-31 19:38:00,
2013-08-31 22:43:00,92.2,83.1,29.65,NNE,23,4.0,6.9,75,0.00,,,0.00,WUHU216HW,2013-08-31 19:43:00,
2013-08-31 22:48:00,92.2,83.5,29.65,NNE,23,1.8,6.3,76,0.00,,,0.00,WUHU216HW,2013-08-31 19:48:00,
2013-08-31 22:53:00,92.2,83.1,29.65,NNW,338,2.5,4.9,75,0.00,,,0.00,WUHU216HW,2013-08-31 19:53:00,
2013-08-31 22:58:00,92.2,83.5,29.65,NNE,23,6.3,6.7,76,0.00,,,0.00,WUHU216HW,2013-08-31 19:58:00,
2013-08-31 23:03:00,92.0,83.4,29.65,NNE,23,6.3,6.7,76,0.00,,,0.00,WUHU216HW,2013-08-31 20:03:00,
2013-08-31 23:08:00,92.0,83.4,29.65,North,0,2.5,6.7,76,0.00,,,0.00,WUHU216HW,2013-08-31 20:08:00,
2013-08-31 23:13:00,92.0,83.4,29.65,NNE,23,3.1,5.4,76,0.00,,,0.00,WUHU216HW,2013-08-31 20:13:00,
2013-08-31 23:18:00,91.8,83.5,29.64,North,0,3.6,5.4,77,0.00,,,0.00,WUHU216HW,2013-08-31 20:18:00,
2013-08-31 23:23:00,91.8,83.5,29.64,NNE,23,3.4,5.4,77,0.00,,,0.00,WUHU216HW,2013-08-31 20:23:00,
2013-08-31 23:28:00,91.8,83.5,29.64,NE,45,3.8,4.0,77,0.00,,,0.00,WUHU216HW,2013-08-31 20:28:00,
2013-08-31 23:33:00,91.8,83.5,29.64,North,0,1.1,4.0,77,0.00,,,0.00,WUHU216HW,2013-08-31 20:33:00,
2013-08-31 23:38:00,91.8,83.5,29.64,NNE,23,0.7,3.8,77,0.00,,,0.00,WUHU216HW,2013-08-31 20:38:00,
2013-08-31 23:43:00,91.6,83.3,29.64,NNE,23,1.8,3.4,77,0.00,,,0.00,WUHU216HW,2013-08-31 20:43:00,
2013-08-31 23:48:00,91.6,83.3,29.64,NNE,23,4.0,4.0,77,0.00,,,0.00,WUHU216HW,2013-08-31 20:48:00,
2013-08-31 23:53:00,91.6,83.3,29.64,NNE,23,4.0,4.0,77,0.00,,,0.00,WUHU216HW,2013-08-31 20:53:00,
2013-08-31 23:58:00,91.6,83.3,29.63,North,0,4.9,5.1,77,0.00,,,0.00,WUHU216HW,2013-08-31 20:58:00,